{"data":{"norad_id":44353,"intl_designator":"2019-036Q","name":"FORMOSAT 7-6","alt_names":[],"object_type":"PAYLOAD","status":"ACTIVE","operator":null,"country":"ROC","launch_date":"2019-06-25","launch_site_code":"AFETR","launch_vehicle":null,"mission":null,"orbit_class":"UNKNOWN","rcs_meters":null,"size_class":null,"mass_kg":null,"dimensions":null,"purposes":[],"wikipedia_slug":null,"has_3d_model":false,"image_url":null,"decayed_at":null,"tle_current":{"epoch":"2026-05-25T00:29:16.315872Z","epoch_age_seconds":66509,"freshness":"FRESH","line1":"1 44353U 19036Q   26145.02032773  .00002035  00000+0  14930-3 0  9999","line2":"2 44353  23.9965 125.7992 0001137 173.3272 186.7244 14.96393120378342","mean_motion":14.9639312,"eccentricity":0.0001137,"inclination_deg":23.9965,"raan_deg":125.7992,"arg_perigee_deg":173.3272,"mean_anomaly_deg":186.7244,"bstar":0.0001493,"rev_number":37834,"period_min":96.2313967335,"perigee_km":577.26107360921,"apogee_km":578.84291098606,"semimajor_km":6956.1889922976,"source":"CELESTRAK","updated_at":"2026-05-25T13:37:55.971193Z"}}}